GFSFLT2_850_thetae_000.txt.gz
Theta_e
330 327 325 323 319 317 314 312 311 309 310 313 313 314 314 314 312 312 311 311 312 312 311 311 311 311 311 310 310 309 309 309
323 319 317 315 315 313 308 308 308 309 312 316 315 316 314 314 313 312 312 313 313 314 314 315 314 313 312 311 312 312 311 309
314 312 310 311 311 308 308 308 310 314 316 316 315 315 314 313 313 313 313 314 315 316 316 317 317 317 316 315 315 312 312 311
316 312 308 309 309 310 312 313 313 315 317 317 315 315 314 314 314 314 314 315 316 316 316 316 316 316 316 315 315 316 315 316
317 316 314 312 313 316 315 317 316 319 316 317 316 315 314 314 314 314 314 314 314 314 313 313 313 313 312 313 314 313 313 315
320 316 319 321 321 321 321 321 322 323 319 313 315 316 315 316 316 316 315 313 313 312 312 312 312 312 312 312 312 313 314 315
323 317 319 321 324 325 324 325 326 326 325 321 319 319 319 318 318 318 317 315 313 312 312 312 311 311 312 311 312 315 315 315
325 322 320 323 325 326 326 326 326 327 326 324 322 320 320 320 320 320 317 315 314 312 311 310 311 311 310 311 313 313 313 312
327 325 320 325 325 325 325 325 326 326 325 324 321 321 320 320 320 319 316 313 311 311 309 309 309 309 309 309 309 309 309 309
327 326 322 322 323 323 321 323 324 324 322 322 322 320 320 319 318 317 312 311 309 307 308 308 308 308 307 307 307 307 306 303
328 326 324 322 321 322 322 323 322 322 322 321 319 317 314 312 311 311 310 307 306 307 307 307 306 306 306 306 306 305 303 303
327 326 325 325 323 323 318 316 317 318 317 313 312 311 311 311 310 307 307 306 306 306 306 306 305 303 303 303 303 302 301 301
325 325 324 322 320 316 316 318 318 314 311 311 311 309 309 307 307 307 307 306 306 305 303 302 301 300 299 300 301 301 301 299
321 321 320 318 317 317 316 312 310 310 310 310 309 309 308 307 306 306 306 303 301 301 300 298 297 295 295 295 297 296 298 299
315 313 312 312 311 312 312 312 311 310 310 309 309 308 306 306 306 304 303 304 303 302 298 297 296 295 293 296 298 298 297 295
313 312 313 313 313 313 313 312 311 310 309 308 307 306 305 304 303 303 303 303 301 298 297 296 296 293 294 296 297 296 295 295
314 313 313 313 313 312 312 311 310 308 306 306 305 304 303 302 299 301 300 300 299 298 298 297 293 292 292 292 291 290 290 293
314 313 313 313 312 311 310 308 306 304 304 303 304 302 301 300 300 300 300 299 297 295 293 292 291 290 289 288 287 287 287 288
313 313 312 311 311 309 307 305 302 301 302 302 303 302 301 300 300 301 300 296 294 293 292 290 289 288 287 287 287 287 286 286
312 312 311 309 308 306 304 302 300 300 300 300 299 298 299 299 299 300 299 297 298 292 291 289 288 288 287 287 287 286 286 286

GFSFLT2_850_thetae_003.txt.gz
Theta_e
336 334 330 328 328 321 319 315 311 310 310 312 312 313 313 313 312 312 312 312 312 313 313 313 313 313 313 312 311 310 310 311
333 329 330 330 324 320 313 311 309 310 311 314 314 313 313 312 312 312 312 313 314 315 315 315 315 315 314 313 313 313 312 310
324 327 323 318 317 314 310 309 309 310 314 315 314 314 313 313 313 313 313 313 314 315 315 316 316 314 313 313 313 313 313 313
319 320 319 316 315 310 308 308 310 314 317 316 315 315 314 314 314 313 314 314 314 314 314 314 314 313 312 311 312 311 311 312
315 311 311 312 311 311 312 312 317 318 319 318 318 317 316 315 315 315 315 314 313 312 312 312 312 311 311 311 310 310 310 312
317 315 312 310 314 318 320 321 322 323 319 320 321 319 317 317 317 316 315 314 313 313 312 312 311 311 311 311 310 310 311 313
317 320 321 321 324 325 325 325 326 326 326 323 321 322 320 318 318 318 318 317 315 314 313 312 310 309 310 310 310 311 313 313
320 319 322 324 325 326 326 324 324 325 325 325 322 321 320 320 319 319 319 318 316 313 311 308 307 307 308 309 309 309 309 309
324 318 322 324 325 324 321 319 320 321 321 324 322 321 320 320 319 320 319 314 310 309 307 306 306 307 307 307 307 306 306 305
325 322 318 322 321 321 322 319 321 321 324 322 320 319 319 318 315 311 310 309 307 307 306 306 306 306 306 306 306 305 305 305
326 325 321 319 321 320 321 321 320 317 316 314 312 311 311 310 310 309 307 307 308 307 306 306 305 305 305 305 304 303 303 303
326 325 324 322 322 322 322 317 316 317 313 310 310 310 309 309 309 308 308 307 306 306 305 303 302 301 301 302 303 303 302 302
322 323 324 321 319 318 317 317 317 315 310 309 309 310 309 309 308 307 306 305 305 304 304 303 302 301 299 299 299 298 300 301
323 320 317 316 316 315 315 313 309 310 310 310 310 309 309 308 306 305 304 304 304 304 303 300 299 297 296 298 298 298 299 297
316 314 315 313 311 311 312 312 311 310 310 309 308 308 306 305 304 304 302 301 301 300 298 297 298 296 295 295 296 297 297 296
312 311 312 312 312 312 311 311 310 309 308 306 305 305 304 303 303 301 299 300 299 299 298 297 295 295 294 294 292 294 293 293
313 313 312 312 311 311 310 309 308 306 304 303 303 303 303 302 301 298 297 300 300 299 296 293 292 292 290 290 291 290 290 291
313 313 312 312 311 310 309 308 306 305 303 301 301 300 299 297 296 296 298 299 300 298 296 296 294 291 288 288 289 288 288 289
312 312 312 311 310 308 307 305 302 298 296 295 294 293 293 293 296 299 300 300 297 296 294 292 290 288 288 288 288 288 288 288
313 313 312 308 306 304 301 298 296 294 293 292 291 291 291 290 292 299 300 298 296 297 293 292 289 288 288 288 288 288 287 287

GFSFLT2_850_thetae_006.txt.gz
Theta_e
336 336 335 333 331 328 325 321 316 312 313 311 310 313 314 313 312 312 312 312 313 314 314 315 315 314 313 312 312 314 319 318
335 333 330 329 328 326 321 317 314 314 313 314 315 315 313 313 313 312 312 314 315 316 316 316 315 314 313 312 312 318 318 318
334 333 331 329 331 324 321 315 313 313 316 317 317 325 321 322 313 313 313 314 315 315 315 315 314 319 317 312 316 316 317 317
331 328 328 326 328 326 320 317 324 324 324 320 326 320 321 315 315 313 314 314 314 313 312 313 319 320 319 316 316 314 315 316
336 334 321 328 325 325 323 322 321 321 319 321 323 320 322 325 324 323 322 316 321 317 317 318 313 313 315 314 312 312 312 312
319 324 322 317 323 323 317 322 321 320 321 321 320 320 319 319 323 322 318 319 315 315 317 314 313 312 308 308 308 309 310 310
325 315 312 315 321 322 324 325 326 325 324 321 319 320 322 323 321 319 318 318 317 316 316 314 312 311 309 307 308 308 308 310
319 320 321 325 326 326 326 323 322 323 325 326 324 321 319 318 320 318 318 318 318 315 311 310 309 308 308 308 308 308 307 308
319 322 324 325 323 321 321 320 321 321 321 323 322 322 320 320 316 317 316 313 310 309 308 309 309 308 308 307 307 307 306 309
322 318 323 324 323 320 319 320 320 321 319 319 319 318 318 315 312 310 310 309 307 308 308 308 308 307 307 306 306 305 305 309
326 323 321 319 321 318 320 321 320 318 317 314 312 311 311 310 309 309 308 307 307 307 307 306 306 306 305 304 305 305 305 306
325 325 323 324 323 321 322 320 317 316 313 310 310 310 310 309 309 308 307 307 306 306 306 306 305 305 305 304 305 303 303 304
324 323 323 324 320 319 318 317 316 315 309 309 309 309 308 308 307 307 307 307 307 306 305 305 304 304 302 301 301 300 302 303
326 324 324 321 319 318 317 316 313 309 310 310 310 309 308 307 307 307 307 306 306 306 304 302 301 302 301 300 299 299 299 301
326 323 319 317 315 312 311 311 311 311 309 308 308 307 306 306 306 305 305 305 304 304 302 301 300 300 299 298 298 298 297 297
321 317 314 311 310 311 311 312 311 309 308 307 307 306 304 304 304 303 302 302 302 302 300 300 298 297 297 297 296 295 296 295
313 312 311 310 311 311 311 309 308 307 306 305 305 304 303 303 302 302 301 300 301 301 300 298 297 297 296 295 295 294 293 292
311 311 311 312 312 311 309 307 304 302 300 299 298 296 296 296 297 300 301 301 302 300 298 297 296 295 293 292 292 292 291 291
311 311 312 311 310 307 304 302 300 297 296 295 295 295 295 295 294 297 300 301 300 297 296 296 295 293 292 291 291 291 291 291
311 310 311 308 305 304 301 299 297 296 295 294 295 295 295 296 297 299 300 299 297 296 297 295 294 292 291 291 291 291 290 290

GFSFLT2_850_thetae_009.txt.gz
Theta_e
336 336 335 333 331 330 327 324 316 313 313 309 310 314 313 313 311 312 312 313 314 315 315 315 314 313 313 312 317 318 319 319
336 335 333 331 329 327 325 320 313 313 312 312 315 315 313 313 313 312 313 314 315 315 315 315 314 321 320 317 317 317 317 318
334 333 333 331 330 324 317 314 312 312 316 316 321 327 326 326 320 313 313 314 315 314 313 313 318 322 320 317 317 317 316 316
334 333 331 331 331 326 327 322 325 326 328 327 327 325 325 318 322 314 314 315 315 317 317 319 320 319 318 317 316 315 314 313
332 328 331 331 328 325 323 323 325 327 328 328 326 327 327 326 325 325 325 323 323 321 320 320 320 318 317 316 315 314 312 312
331 330 330 328 324 324 324 327 328 328 329 327 328 327 318 317 325 324 323 323 321 320 320 319 317 315 314 314 313 312 311 311
329 328 327 327 326 328 329 330 330 328 329 328 325 326 319 320 319 317 318 321 320 320 319 316 313 313 312 311 311 310 310 310
328 326 327 329 330 330 328 322 322 323 322 324 326 324 322 319 318 320 320 320 319 316 314 312 311 311 310 309 309 309 309 309
327 330 330 330 328 324 321 320 318 323 323 322 324 324 322 321 320 318 318 316 312 311 311 310 310 310 309 309 309 308 308 308
328 329 328 325 322 320 320 319 318 320 319 317 318 317 317 317 316 316 312 309 308 309 309 309 309 309 309 308 307 306 307 307
328 327 323 324 322 322 320 319 320 318 316 313 311 311 311 311 312 312 310 311 311 310 309 309 309 309 308 307 307 305 306 306
329 328 323 321 327 322 321 319 317 316 314 312 310 312 310 311 312 311 310 310 310 310 310 309 308 308 306 306 304 303 302 302
330 328 327 327 325 322 320 319 317 315 313 309 310 310 310 310 311 311 310 310 309 309 309 308 307 304 303 303 302 302 301 301
329 328 327 324 322 320 320 319 316 313 312 311 310 310 310 309 309 309 309 308 307 307 307 306 304 302 302 302 300 299 299 299
329 327 324 321 320 318 315 312 313 314 313 311 311 310 309 308 308 307 307 306 304 303 304 304 302 301 300 299 299 299 298 297
325 323 320 318 315 315 315 315 314 312 311 310 309 307 306 304 303 303 303 304 303 302 303 302 301 300 299 299 298 298 297 296
322 319 315 314 314 314 314 313 311 309 306 303 301 300 299 298 298 298 299 302 303 303 303 302 300 299 298 297 296 295 294 294
318 315 314 313 313 312 311 308 305 303 301 299 298 298 298 298 298 298 299 300 302 302 302 300 299 298 296 295 294 293 293 293
315 314 313 312 311 308 305 303 301 300 299 298 298 298 297 297 298 299 300 300 301 300 299 298 298 296 295 294 293 293 293 292
314 313 312 310 306 303 305 302 301 300 299 298 297 297 297 297 298 300 300 300 299 298 298 297 297 295 294 294 293 292 292 292

GFSFLT2_850_thetae_012.txt.gz
Theta_e
328 326 330 334 332 330 327 322 311 312 310 309 311 313 313 311 311 312 313 314 314 315 314 314 314 321 319 316 317 317 317 319
333 329 334 331 329 326 323 317 310 312 311 313 314 314 313 314 313 312 313 314 314 314 313 313 320 322 320 317 317 316 315 315
333 329 330 329 326 321 318 314 311 312 314 323 327 326 327 327 325 312 313 314 313 316 317 319 320 320 319 317 317 316 313 313
331 331 330 328 322 322 314 321 323 328 320 328 328 327 325 323 325 318 324 322 322 323 321 321 321 319 318 316 315 314 312 312
329 328 329 331 326 324 323 325 324 325 322 329 328 327 328 327 325 326 325 324 323 321 321 320 319 316 314 313 313 312 311 311
330 331 330 327 324 323 326 327 328 329 325 325 327 328 324 321 323 325 323 321 321 320 320 319 315 313 312 312 311 311 310 310
330 329 327 325 324 327 328 328 328 329 329 329 328 326 320 320 320 319 320 320 320 320 318 317 315 311 310 310 309 309 309 309
329 325 326 327 329 328 328 325 323 323 319 320 322 326 325 323 320 319 317 314 317 318 315 310 310 310 310 310 309 309 308 308
324 326 331 329 328 324 321 320 320 321 320 320 321 322 323 322 320 317 315 313 316 310 309 309 310 309 309 309 308 308 307 306
329 330 329 327 323 320 320 321 318 319 319 317 317 318 317 317 313 311 311 311 311 311 310 310 310 309 309 308 308 307 307 305
330 330 327 324 321 321 322 320 320 318 317 314 311 310 310 310 313 312 311 310 311 310 311 310 309 308 308 307 306 306 304 303
330 329 325 322 326 324 321 318 317 315 314 312 314 312 310 310 312 311 311 311 310 310 309 309 308 308 307 304 303 303 302 301
330 329 323 325 327 321 319 318 317 315 313 310 311 310 311 310 310 310 310 310 309 308 306 307 307 306 303 302 301 301 301 300
330 329 328 328 324 321 320 319 316 314 313 312 312 311 310 309 308 308 307 307 306 305 304 303 303 304 302 300 300 300 300 299
330 329 328 323 321 320 320 317 314 314 313 312 311 310 309 307 306 304 304 302 304 304 303 303 304 303 301 300 299 299 298 297
329 328 324 321 318 316 316 316 315 314 312 311 308 306 304 302 299 298 298 299 301 302 303 303 303 302 300 299 299 297 296 295
327 324 321 318 316 316 315 314 312 310 308 305 301 300 298 298 298 297 295 295 296 300 302 303 302 300 300 298 296 295 294 293
324 320 316 315 315 315 314 313 310 306 304 301 299 298 298 297 297 295 296 298 300 301 302 302 301 299 299 297 295 294 293 293
321 316 315 314 313 313 312 309 308 308 304 299 297 297 297 297 295 295 295 300 301 301 301 299 297 297 297 295 294 293 293 293
317 315 314 313 311 310 308 310 311 305 301 299 295 296 295 295 295 294 298 300 300 297 297 297 296 296 295 294 294 293 292 292

GFSFLT2_850_thetae_015.txt.gz
Theta_e
332 331 331 324 326 328 323 316 309 310 308 309 312 312 310 310 312 313 314 314 314 314 313 319 321 320 317 317 316 314 314 315
328 327 331 328 330 326 320 311 310 309 310 312 312 312 312 312 311 312 313 314 313 315 317 319 320 319 319 317 316 316 313 313
322 323 326 328 326 322 316 309 310 312 315 318 323 325 325 324 316 314 314 320 319 321 320 321 321 319 316 315 314 313 311 312
322 327 329 326 321 315 311 310 314 318 327 326 326 327 323 324 324 325 324 324 323 321 320 321 318 316 314 313 312 312 310 309
327 327 326 320 314 315 318 321 322 326 328 329 326 327 326 326 325 325 324 322 321 321 320 320 317 314 313 312 311 310 310 309
328 330 327 323 323 324 326 326 323 322 330 329 327 321 326 321 324 324 323 321 320 320 320 318 316 315 312 309 309 309 309 309
330 330 326 325 324 325 328 328 330 330 326 328 328 325 322 319 320 320 319 319 318 318 319 318 315 310 309 309 309 309 308 307
331 326 325 324 327 327 327 329 329 326 319 319 321 322 323 323 322 320 318 315 313 314 315 310 309 309 309 308 308 308 308 307
324 326 327 324 326 325 324 323 321 319 318 320 321 323 323 322 321 318 312 311 311 310 310 310 309 309 308 308 307 308 307 307
324 327 327 325 324 323 319 319 320 318 319 318 319 320 318 314 311 310 310 310 309 310 310 310 310 309 306 307 306 305 305 306
330 330 328 325 322 320 321 321 319 319 317 314 312 310 309 310 311 311 311 310 310 310 310 310 308 307 308 307 305 303 303 301
330 329 325 324 321 323 321 319 318 317 314 312 311 310 310 310 311 310 310 310 310 309 309 305 305 306 306 305 302 301 301 300
329 326 325 322 324 321 319 317 315 313 313 310 311 311 311 310 309 309 307 305 305 305 303 304 304 302 302 303 302 300 300 300
328 326 325 323 326 320 318 317 316 313 312 312 311 311 310 308 307 305 304 303 301 301 302 302 301 302 303 303 300 299 299 299
328 326 324 327 327 321 318 317 315 313 312 312 311 311 309 306 303 301 299 299 299 299 300 301 303 303 302 301 299 298 297 297
330 329 326 327 323 321 319 317 314 313 312 312 311 309 304 301 298 297 296 295 294 295 297 300 302 302 302 301 299 298 295 294
330 329 328 321 320 320 316 315 315 313 312 312 307 306 301 298 297 296 295 294 295 297 300 302 303 302 301 299 298 298 295 294
329 329 326 321 318 316 315 315 315 314 312 308 310 308 300 296 295 295 294 294 298 300 301 302 301 300 297 296 297 294 294 293
329 327 323 322 320 316 315 315 314 312 309 311 310 302 296 295 295 294 293 296 299 300 299 297 297 296 295 295 295 294 293 293
327 323 322 321 316 315 314 313 311 310 311 309 302 296 295 294 294 293 294 298 299 300 297 296 295 296 296 295 295 294 292 292

GFSFLT2_850_thetae_018.txt.gz
Theta_e
331 328 325 322 324 321 320 311 310 308 310 310 311 310 312 312 313 314 314 314 313 315 318 319 319 318 317 317 316 314 312 312
327 324 321 319 321 322 314 310 309 308 310 312 311 310 311 311 312 313 314 313 318 320 319 319 320 319 318 315 313 312 311 310
328 323 322 326 326 319 311 310 310 312 314 313 317 321 320 313 315 321 323 322 322 320 321 321 320 320 318 315 312 311 311 309
324 325 320 326 324 314 311 311 316 322 324 324 326 324 323 321 324 323 323 323 321 320 320 320 318 315 313 313 311 310 309 309
325 325 327 325 316 311 312 317 327 328 327 327 326 323 322 324 325 325 323 322 321 321 320 319 315 313 313 311 309 308 309 309
328 326 322 317 316 314 320 320 327 328 328 326 326 327 326 324 323 324 323 321 320 320 319 317 317 316 311 309 309 309 309 308
326 324 321 320 323 323 325 325 326 329 327 327 327 323 324 320 321 320 320 319 318 316 315 317 315 311 309 309 308 308 308 308
328 325 323 325 326 327 328 328 327 326 323 319 321 323 323 320 321 321 319 316 313 311 312 310 309 309 309 308 305 306 307 307
329 325 325 324 326 328 329 329 327 319 318 318 320 322 321 321 321 318 313 310 309 310 309 309 309 309 309 309 305 307 306 306
327 325 325 326 327 328 328 327 322 319 319 320 320 321 319 317 316 311 310 310 310 309 309 309 309 310 306 305 306 305 304 303
325 325 324 325 327 326 321 320 320 318 318 315 315 313 311 309 310 310 310 309 309 308 309 309 309 304 304 305 306 303 302 301
326 326 326 325 325 322 322 320 318 318 317 313 310 310 310 311 310 310 309 308 308 308 306 304 300 302 302 302 302 302 301 300
324 327 327 327 323 321 322 320 319 317 313 311 310 311 311 310 310 310 307 303 301 300 299 299 300 299 300 302 303 302 300 299
328 329 329 326 322 322 320 318 316 313 312 310 311 311 311 310 309 307 303 300 299 298 298 298 299 301 302 302 301 300 299 298
326 328 326 325 322 322 317 316 314 313 311 311 311 312 311 310 307 303 300 297 296 296 295 297 299 302 302 302 300 298 298 297
326 325 325 323 323 321 319 318 317 315 313 312 312 312 308 308 303 298 297 296 295 294 295 296 299 302 302 301 300 299 298 296
328 327 325 323 325 326 321 319 318 316 313 312 312 309 307 304 299 297 296 295 294 294 296 299 301 301 301 300 298 296 296 295
328 329 327 327 327 326 323 319 317 314 313 312 310 308 306 301 297 295 294 294 293 296 298 300 298 296 297 295 295 295 295 293
330 330 329 327 323 321 320 319 315 314 312 311 308 305 300 296 295 294 294 293 294 297 298 299 296 295 295 295 295 294 294 294
330 330 329 323 320 319 316 315 314 312 310 309 306 301 297 295 294 294 293 293 295 297 299 297 297 295 295 295 295 295 294 293

GFSFLT2_850_thetae_024.txt.gz
Theta_e
330 331 329 320 314 311 311 310 308 309 310 310 311 313 313 314 314 313 314 315 317 318 318 318 319 318 318 315 314 313 310 308
330 329 323 316 314 311 310 309 308 310 310 310 311 312 313 314 313 313 314 316 316 318 319 319 319 319 317 315 315 313 309 308
330 326 318 316 315 312 310 308 308 310 310 311 312 313 313 314 313 314 316 316 318 319 320 320 319 318 316 314 312 311 308 308
324 322 320 320 318 313 310 308 309 311 311 311 312 312 312 313 316 317 319 320 320 320 320 320 319 317 313 313 311 309 308 307
325 325 321 320 320 315 309 308 312 312 313 318 316 313 312 314 319 320 321 322 321 320 320 319 317 315 315 313 309 308 306 306
318 317 318 318 315 312 309 310 312 320 321 322 322 320 319 321 322 323 322 321 320 319 318 317 316 314 310 309 309 308 305 304
320 321 320 318 316 312 311 318 322 324 324 323 322 322 323 323 323 323 322 321 320 318 314 313 311 309 309 308 308 306 303 303
322 323 323 322 315 312 316 324 325 326 326 325 324 325 325 324 323 321 319 319 316 313 310 309 309 309 308 308 307 302 302 302
322 323 326 321 313 315 325 327 327 327 325 325 326 325 325 322 319 319 320 317 310 310 309 308 308 308 308 304 301 302 301 300
324 324 321 316 318 322 323 326 327 327 326 324 326 326 324 322 321 320 317 310 310 309 308 307 306 304 300 301 301 301 301 301
324 321 318 319 323 325 326 325 324 326 325 324 322 322 322 321 319 313 310 310 309 307 305 301 300 299 299 300 300 301 301 301
323 322 323 324 325 325 326 327 326 327 322 320 321 321 321 316 310 310 309 308 306 303 300 299 298 298 298 298 300 301 301 300
324 324 323 323 324 324 327 327 328 324 320 320 320 320 316 310 310 309 308 305 303 301 299 297 297 296 297 299 300 300 300 299
325 326 323 324 325 324 326 327 322 320 319 318 317 314 310 310 310 308 306 304 302 299 297 297 296 296 296 298 300 299 299 299
321 323 325 324 324 326 327 325 321 319 317 314 311 310 310 310 309 308 305 302 300 298 298 298 297 296 297 298 300 300 299 299
324 323 324 324 325 326 327 326 322 319 317 315 312 310 310 310 310 307 305 303 299 297 299 303 296 296 298 298 298 299 298 297
326 325 325 324 325 326 326 325 322 320 316 314 312 310 310 310 309 305 304 301 297 304 309 305 296 296 297 295 294 294 294 294
327 327 323 323 325 326 325 326 324 320 316 314 312 311 311 310 308 305 303 298 300 308 307 295 294 295 295 295 294 293 294 294
327 327 325 321 325 325 325 325 324 321 320 320 313 312 311 310 306 301 297 302 306 303 296 295 294 293 295 295 294 294 293 294
327 327 327 322 323 326 325 325 323 321 321 320 317 314 312 309 306 311 303 306 308 301 296 292 295 295 295 294 294 294 293 293